Location: Chateh
(58.6667°N, 118.6000°W)
Time: 17:45:03
(UTC+00:00)

Gurwin Techsat 1B - Pass Details

Date: 02 December 2023
Orbit: 810 x 813 km, 98.9° (Epoch: 21 February)

Event Time Altitude Azimuth Distance (km) Brightness Sun altitude
Rises 12:45:26 0° 16° (NNE) 3,352 12.0 -26.2°
Reaches altitude 10° 12:47:53 10° 10° (N) 2,417 11.2 -25.8°
Enters shadow 12:50:47 29° 348° (NNW) 1,477 9.8 -25.5°
